Deer Park, WA

1:11 AM PDT on August 27, 2016 (GMT -0700)
Deer Park

Weather History for KDEW - February, 2014

Change the Weather History Date:

Wednesday, February 26, 2014

  Actual Average Record
Temperature  
Mean Temperature 27 °F 32 °F  
Max Temperature 40 °F 43 °F 57 °F (2016)
Min Temperature 13 °F 22 °F -11 °F (2011)
Degree Days  
Heating Degree Days 38 33  
Month to date heating degree days 995 905  
Since 1 July heating degree days 5326 5301  
Cooling Degree Days 0 0  
Month to date cooling degree days 0 0  
Year to date cooling degree days 0 0  
Moisture  
Dew Point 13 °F    
Average Humidity 57    
Maximum Humidity 80    
Minimum Humidity 33    
Precipitation  
Precipitation 0.00 in 0.06 in 0.05 in (2006)
Month to date precipitation 2.02 1.49  
Year to date precipitation 3.70 4.12  
Sea Level Pressure  
Sea Level Pressure 30.12 in    
Wind  
Wind Speed 9 mph (North)    
Max Wind Speed 16 mph    
Max Gust Speed 20 mph    
Visibility 10 miles    
Events      
T = Trace of Precipitation, MM = Missing Value Source: NWS Daily Summary

Daily Weather History Graph

Daily Weather History Graph

Search for Another Location

Airport or City:

Trip Planner

Search our weather history database for the weather conditions in past years. The results will help you decide how hot, cold, wet, or windy it might be!

Date:

Astronomy

Feb. 26, 2014 Rise Set
Actual Time 6:36 AM PST 5:29 PM PST
Civil Twilight 6:04 AM PST 6:01 PM PST
Nautical Twilight 5:28 AM PST 6:36 PM PST
Astronomical Twilight 4:53 AM PST 7:12 PM PST
Moon 4:35 AM PST (2/26) 2:41 PM PST (2/26)
Length of Visible Light 11h 56m
Length of Day
10h 53m
Waning Crescent, 9% of the Moon is Illuminated
Feb 26
Waning Crescent
Mar 1
New
Mar 8
First Quarter
Mar 16
Full
Mar 23
Last Quarter

Hourly Weather History & Observations

Time (PST) Temp. Windchill Dew Point Humidity Pressure Visibility Wind Dir Wind Speed Gust Speed Precip Events Conditions
12:53 AM 19.0 °F 6.8 °F 12.9 °F 77% 30.29 in 10.0 mi North 11.5 mph - N/A   Clear
1:53 AM 15.1 °F 5.2 °F 10.9 °F 84% 30.28 in 10.0 mi North 6.9 mph - N/A   Clear
2:53 AM 18.0 °F 6.9 °F 12.0 °F 78% 30.27 in 10.0 mi North 9.2 mph - N/A   Clear
3:53 AM 18.0 °F 5.4 °F 12.9 °F 81% 30.27 in 10.0 mi North 11.5 mph - N/A   Clear
4:53 AM 17.1 °F 4.3 °F 12.0 °F 81% 30.26 in 10.0 mi North 11.5 mph - N/A   Clear
5:53 AM 16.0 °F 3.6 °F 10.9 °F 81% 30.26 in 10.0 mi North 10.4 mph - N/A   Clear
6:53 AM 16.0 °F 2.3 °F 10.9 °F 81% 30.26 in 10.0 mi North 12.7 mph - N/A   Clear
7:53 AM 21.0 °F 9.9 °F 10.9 °F 65% 30.25 in 10.0 mi North 10.4 mph - N/A   Clear
8:53 AM 26.1 °F 15.6 °F 10.9 °F 53% 30.23 in 10.0 mi NNE 11.5 mph - N/A   Clear
9:53 AM 30.0 °F 19.5 °F 10.9 °F 45% 30.21 in 10.0 mi NNE 13.8 mph - N/A   Clear
10:53 AM 33.1 °F 24.4 °F 10.9 °F 40% 30.18 in 10.0 mi NE 11.5 mph - N/A   Clear
11:53 AM 35.1 °F 26.9 °F 12.9 °F 40% 30.15 in 10.0 mi NE 11.5 mph - N/A   Overcast
12:53 PM 37.9 °F 31.5 °F 12.9 °F 36% 30.10 in 10.0 mi NE 9.2 mph - N/A   Partly Cloudy
1:53 PM 39.0 °F 34.0 °F 12.9 °F 34% 30.08 in 10.0 mi NNE 6.9 mph - N/A   Mostly Cloudy
2:53 PM 39.0 °F 34.0 °F 14.0 °F 36% 30.05 in 10.0 mi North 6.9 mph - N/A   Clear
3:53 PM 39.0 °F 32.8 °F 14.0 °F 36% 30.02 in 10.0 mi NNE 9.2 mph - N/A   Mostly Cloudy
4:53 PM 37.9 °F 34.4 °F 14.0 °F 38% 30.01 in 10.0 mi North 4.6 mph - N/A   Partly Cloudy
5:53 PM 34.0 °F 28.8 °F 14.0 °F 44% 29.99 in 10.0 mi North 5.8 mph - N/A   Mostly Cloudy
6:53 PM 30.9 °F 23.5 °F 16.0 °F 54% 29.99 in 10.0 mi North 8.1 mph - N/A   Clear
7:53 PM 30.9 °F 24.3 °F 17.1 °F 57% 29.96 in 10.0 mi North 6.9 mph - N/A   Mostly Cloudy
8:53 PM 28.0 °F 20.8 °F 17.1 °F 63% 29.94 in 10.0 mi North 6.9 mph - N/A   Clear
9:53 PM 27.0 °F 18.7 °F 16.0 °F 63% 29.93 in 10.0 mi North 8.1 mph - N/A   Clear
10:53 PM 28.0 °F 21.7 °F 18.0 °F 66% 29.90 in 10.0 mi NNW 5.8 mph - N/A   Clear
11:53 PM 30.0 °F 24.1 °F 18.0 °F 61% 29.88 in 10.0 mi NNW 5.8 mph - N/A   Partly Cloudy